sat.trackr.live / text

‹ back to catalog

STARLINK-31524

NORAD 59506 · 2024-071Y

PAYLOAD ACTIVE UNKNOWN

§ Identity

Operator
Country
US
Launch date
2024-04-13
Launch site
AFETR
Launch vehicle
Mass (kg)
RCS (m²)

Purposes: comms

External: N2YO · Heavens-Above · Gunter

§ Orbital elements

Epoch: 2026-09-21T10:58:03.818496Z

Period
94.27 min
Inclination
43.0031°
Eccentricity
0.0001367
Mean motion
15.27577551 rev/d
Perigee alt
482.1 km
Apogee alt
484.0 km
Semi-major
6,861.2 km
B*
1.9908e-5
RAAN
307.2121°
Arg perigee
257.8885°
Mean anomaly
102.1814°
Rev number
13,822

§ Raw data

STARLINK-315241 59506U 24071Y   26264.45698864  .00000286  00000+0  19908-4 0  99952 59506  43.0031 307.2121 0001367 257.8885 102.1814 15.27577551138222

JSON: /api/v1/satellites/59506 · /tle

For live sub-satellite position, see the globe view (requires WebGL).

§ Visibility from observer

Set your observer location to see the next 7 days of passes ≥ 10°. The values pass through the URL so the page stays shareable.

No JS? Fill the form by hand. The geolocation button needs JavaScript.